Regional Weather Roundup
Issued by NWS

Home | Current Version | Previous Version | Graphics & Text | Print | Product List | Glossary On
Versions: 1 2 3 4 5 6 7 8 9 10 11 12 13 14 15 16 17 18 19 20 21 22 23 24 25 26 27 28 29 30 31 32 33 34 35 36 37 38 39 40 41 42 43 44 45 46 47 48 49 50
000
ASUS45 KCYS 261810
RWRWY

WYOMING REGIONAL WEATHER ROUNDUP
NATIONAL WEATHER SERVICE CHEYENNE WY
1200 PM MDT SUN APR 26 2015

NOTE:  "FAIR" INDICATES FEW OR NO CLOUDS BELOW 12,000 FEET
WITH NO SIGNIFICANT WEATHER AND/OR OBSTRUCTIONS TO VISIBILITY.

WYZ001-261900-
YELLOWSTONE NATIONAL PARK

CITY           SKY/WX    TMP DP  RH WIND       PRES   REMARKS
LK YELLOWSTONE   N/A     38  30  73 VRB6      29.95R WCI  33
6HR MIN TEMP:  30; 6HR MAX TEMP:  38; 6HR PCP:  0.02;

W YELLOWSTONE  NOT AVBL

$$
WYZ002>013-054>058-071-098>099-261900-
NORTHERN WYOMING

CITY           SKY/WX    TMP DP  RH WIND       PRES   REMARKS
JACKSON        CLOUDY    39  37  93 VRB7      29.91R WCI  34
CODY           CLOUDY    37  34  87 N13       30.00R WCI  29
GREYBULL       LGT RAIN  43  40  89 W15       29.97R
6HR MIN TEMP:  41; 6HR MAX TEMP:  47; 6HR PCP:  0.03;

WORLAND        CLOUDY    41  37  86 NW7       29.98R
6HR MIN TEMP:  40; 6HR MAX TEMP:  42; 6HR PCP:  0.08;

SHERIDAN       RAIN      39  35  86 NW6       30.05R FOG     WCI  35
6HR MIN TEMP:  38; 6HR MAX TEMP:  40; 6HR PCP:  0.13;

BUFFALO        LGT SNOW  34  32  92 MISG      30.03R VSB 3/4
6HR MIN TEMP:  34; 6HR MAX TEMP:  38; 6HR PCP:  0.23;

GILLETTE       LGT RAIN  42  40  92 NE10      29.98R FOG
6HR MIN TEMP:  39; 6HR MAX TEMP:  42; 6HR PCP:  0.22;

HULETT         CLOUDY    41  39  93 NE10G18   30.00R FOG
NEWCASTLE      LGT RAIN  46  45  93 CALM      29.96R

$$
WYZ014>020-022>026-101>103-261900-
CENTRAL WYOMING

CITY           SKY/WX    TMP DP  RH WIND       PRES   REMARKS
BIG PINEY      LGT RAIN  39  35  86 NW15      29.88R WCI  31
6HR MIN TEMP:  37; 6HR MAX TEMP:  45; 6HR PCP:  0.02;

PINEDALE       CLOUDY    45  36  70 SE8G16    29.88R
DUBOIS         CLOUDY    36  32  87 SE13      29.93R WCI  27
LANDER         LGT RAIN  39  36  89 N6        29.94R WCI  35
6HR MIN TEMP:  33; 6HR MAX TEMP:  39; 6HR PCP:  0.12;

RIVERTON       LGT RAIN  39  36  89 N12       29.95R WCI  32
6HR MIN TEMP:  34; 6HR MAX TEMP:  39; 6HR PCP:  0.11;

CASPER         CLOUDY    39  36  89 N18       29.93S WCI  30
6HR MIN TEMP:  35; 6HR MAX TEMP:  39; 6HR PCP:  0.18;

DOUGLAS        CLOUDY    45  45 100 NW5       29.92R
6HR MIN TEMP:  41; 6HR MAX TEMP:  45; 6HR PCP:  0.40;


$$
WYZ021-027>030-104>119-261900-
SOUTHERN WYOMING

CITY           SKY/WX    TMP DP  RH WIND       PRES   REMARKS
EVANSTON       CLOUDY    33  29  85 NW10      29.94R WCI  25
6HR MIN TEMP:  31; 6HR MAX TEMP:  33; 6HR PCP:  0.04;

KEMMERER       CLOUDY    39  34  81 W18G24    29.90R WCI  30
FORT BRIDGER   CLOUDY    39  34  81 W20       29.94R WCI  30
ROCK SPRINGS   PTSUNNY   48  34  58 SW14      29.86R
6HR MIN TEMP:  37; 6HR MAX TEMP:  49; 6HR PCP: TRACE;

DIXON          FAIR      56  34  43 NW5       29.81S THUNDER
RAWLINS        CLOUDY    51  37  58 NE16      29.84S
6HR MIN TEMP:  37; 6HR MAX TEMP:  53;

SARATOGA       FAIR      48  37  66 MISG      29.83S THUNDER
LARAMIE        CLOUDY    45  36  70 SE17      29.87R
6HR MIN TEMP:  35; 6HR MAX TEMP:  46;

CHEYENNE       LGT RAIN  42  40  92 SE9       29.91R
6HR MIN TEMP:  40; 6HR MAX TEMP:  42; 6HR PCP:  0.04;

TORRINGTON     RAIN      45  44  97 E16       29.92R FOG
6HR MIN TEMP:  45; 6HR MAX TEMP:  48; 6HR PCP:  0.46;

PINE BLUFFS    LGT RAIN  43  39  87 E12       29.93R

$$



USA.gov is the U.S. government's official web portal to all federal, state and local government web resources and services.